2014 ITU World Triathlon Auckland : Apr 06 2014 : Elite Women : Results

Pos First Name Last Name Country Time Swim T1 Bike T2 Run
1 Jodie Stimpson GBR 02:08:34 00:20:03 00:00:55 01:11:29 00:00:28 00:35:38
2 Anne Haug GER 02:08:59 00:20:42 00:00:52 01:11:36 00:00:28 00:35:19
3 Helen Jenkins GBR 02:09:10 00:19:58 00:00:56 01:12:17 00:00:30 00:35:28
4 Sarah-anne Brault CAN 02:09:15 00:19:59 00:00:56 01:12:19 00:00:30 00:35:29
5 Sarah Groff USA 02:09:20 00:19:57 00:00:54 01:12:22 00:00:31 00:35:34
6 Andrea Hewitt NZL 02:09:21 00:20:11 00:00:55 01:12:05 00:00:31 00:35:37
7 Emma Moffatt AUS 02:09:35 00:19:55 00:01:00 01:12:17 00:00:30 00:35:51
8 Barbara Riveros CHI 02:09:53 00:20:38 00:00:54 01:11:37 00:00:29 00:36:13
9 Alice Betto ITA 02:10:05 00:19:55 00:00:55 01:12:21 00:00:30 00:36:24
10 Rachel Klamer NED 02:10:22 00:19:52 00:00:56 01:12:21 00:00:28 00:36:43
11 Emma Jackson AUS 02:10:32 00:20:01 00:00:56 01:12:18 00:00:32 00:36:43
12 Gwen Jorgensen USA 02:10:39 00:19:59 00:00:57 01:14:54 00:00:30 00:34:16
13 Kate Mcilroy NZL 02:10:52 00:20:00 00:00:54 01:11:32 00:00:30 00:37:53
14 Vendula Frintova CZE 02:11:06 00:20:16 00:00:58 01:11:58 00:00:29 00:37:22
15 Maaike Caelers NED 02:11:40 00:20:36 00:00:57 01:11:39 00:00:31 00:37:55
16 Nicky Samuels NZL 02:11:57 00:19:50 00:00:57 01:11:38 00:00:28 00:39:01
17 Joanna Brown CAN 02:12:06 00:20:04 00:00:58 01:12:11 00:00:33 00:38:18
18 Rebecca Robisch GER 02:12:23 00:20:37 00:00:55 01:11:38 00:00:33 00:38:38
19 Lucy Hall GBR 02:13:05 00:19:56 00:00:00 00:00:00 00:00:32 00:39:16
20 Ashleigh Gentle AUS 02:13:13 00:20:35 00:00:57 01:14:21 00:00:33 00:36:45
21 Juri Ide JPN 02:13:14 00:20:14 00:00:59 01:14:40 00:00:29 00:36:50
22 Ai Ueda JPN 02:13:24 00:20:18 00:00:59 01:14:40 00:00:32 00:36:53
23 Ellen Pennock CAN 02:13:28 00:19:57 00:00:55 01:15:04 00:00:37 00:36:54
24 Mariko Adachi JPN 02:13:42 00:19:58 00:00:58 01:14:59 00:00:29 00:37:16
25 Anja Knapp GER 02:13:57 00:19:58 00:00:55 01:12:16 00:00:27 00:40:19
26 Pamella Oliveira BRA 02:14:31 00:19:52 00:00:57 01:15:08 00:00:35 00:37:58
27 Claire Michel BEL 02:14:37 00:20:10 00:00:54 01:16:38 00:00:33 00:36:20
28 Mateja Simic SLO 02:14:59 00:20:17 00:00:00 00:00:00 00:00:35 00:38:25
29 Kirsten Sweetland CAN 02:15:13 00:20:02 00:00:57 01:14:59 00:00:35 00:38:39
30 Vicky Holland GBR 02:15:16 00:20:01 00:01:00 01:16:40 00:00:32 00:37:01
31 Charlotte Mcshane AUS 02:15:41 00:20:16 00:00:55 01:14:43 00:00:34 00:39:10
32 Hanna Philippin GER 02:16:31 00:20:36 00:00:59 01:15:59 00:00:30 00:38:25
33 Claudia Rivas MEX 02:17:10 00:20:03 00:00:56 01:16:42 00:00:35 00:38:53
34 Yuko Takahashi JPN 02:17:13 00:19:56 00:00:59 01:16:42 00:00:27 00:39:07
35 Anneke Jenkins NZL 02:17:27 00:20:35 00:00:57 01:14:22 00:00:31 00:40:59
36 Natalie Milne GBR 02:18:23 00:19:50 00:01:00 01:15:06 00:00:34 00:41:52
37 Tamsyn Moana-veale AUS 02:19:22 00:19:56 00:00:58 01:16:47 00:00:33 00:41:07
38 Maria Czesnik POL 02:19:46 00:20:44 00:01:03 01:18:01 00:00:38 00:39:18
39 Carolina Routier ESP 02:20:48 00:19:48 00:00:56 01:18:33 00:00:30 00:40:59
DSQ Katie Hursey USA 00:00:00 00:19:55 00:00:55 01:18:50 00:00:32 00:37:29
DNF Yuka Sato JPN 00:00:00 00:20:00 00:01:00 01:16:36 00:00:34 00:00:00
DNF Simone Ackermann NZL 00:00:00 00:20:01 00:01:01 01:16:39 00:00:36 00:00:00
DNF Sofie Hooghe BEL 00:00:00 00:20:01 00:00:56 01:16:42 00:00:38 00:00:00
DNF Rebecca Clarke NZL 00:00:00 00:19:56 00:00:56 00:00:00 00:00:00 00:00:00
DNF Annamaria Mazzetti ITA 00:00:00 00:20:05 00:00:56 00:00:00 00:00:00 00:00:00
DNF Michelle Mehnert USA 00:00:00 00:20:04 00:01:03 00:00:00 00:00:00 00:00:00
DNF Fiona Crombie NZL 00:00:00 00:22:08 00:01:02 00:00:00 00:00:00 00:00:00
DNF Sarissa De Vries NED 00:00:00 00:20:19 00:00:57 00:00:00 00:00:00 00:00:00
DNF Lois Rosindale GBR 00:00:00 00:20:38 00:00:58 00:00:00 00:00:00 00:00:00
DNF Tamara Gomez Garrido ESP 00:00:00 00:20:40 00:00:57 00:00:00 00:00:00 00:00:00

Distances: Swim 1500 m (2 laps) Bike 40,724 km (8 laps) Run 10 Km (4 laps), Water temperature 20.6 C air temperature 30.7 C, humidity 33%. Wetsuit not allowed. Athlete # 30 Katie Hursey/USA was DSQ due to irregular transition.